TimeCDT,TemperatureF,Dew PointF,Humidity,Sea Level PressureIn,VisibilityMPH,Wind Direction,Wind SpeedMPH,Gust SpeedMPH,PrecipitationIn,Events,Conditions,WindDirDegrees,DateUTC
12:53 AM,54.0,50.0,86,30.03,10.0,WNW,4.6,-,N/A,,Clear,300,2013-08-03 05:53:00
1:53 AM,54.0,48.9,83,30.04,10.0,NW,3.5,-,N/A,,Clear,310,2013-08-03 06:53:00
2:53 AM,53.1,48.9,86,30.05,10.0,Calm,Calm,-,N/A,,Clear,0,2013-08-03 07:53:00
3:53 AM,51.1,48.0,89,30.06,10.0,Calm,Calm,-,N/A,,Clear,0,2013-08-03 08:53:00
4:53 AM,48.9,46.9,93,30.06,10.0,Calm,Calm,-,N/A,,Clear,0,2013-08-03 09:53:00
5:53 AM,44.1,43.0,96,30.09,4.0,WSW,3.5,-,N/A,,Clear,250,2013-08-03 10:53:00
5:55 AM,44.6,42.8,93,30.08,1.8,WSW,3.5,-,N/A,,Clear,250,2013-08-03 10:55:00
6:13 AM,44.6,42.8,93,30.09,10.0,Calm,Calm,-,N/A,,Clear,0,2013-08-03 11:13:00
6:53 AM,54.0,50.0,86,30.09,10.0,Calm,Calm,-,N/A,,Clear,0,2013-08-03 11:53:00
7:53 AM,57.9,50.0,75,30.10,10.0,NW,3.5,-,N/A,,Clear,310,2013-08-03 12:53:00
8:53 AM,62.1,50.0,65,30.10,10.0,WNW,5.8,-,N/A,,Clear,290,2013-08-03 13:53:00
9:53 AM,66.0,50.0,56,30.11,10.0,WNW,8.1,-,N/A,,Clear,300,2013-08-03 14:53:00
10:53 AM,66.0,48.0,52,30.13,10.0,Variable,5.8,-,N/A,,Scattered Clouds,0,2013-08-03 15:53:00
11:53 AM,66.9,46.0,47,30.13,10.0,NNW,10.4,-,N/A,,Scattered Clouds,330,2013-08-03 16:53:00
12:53 PM,68.0,46.9,47,30.12,10.0,WNW,9.2,17.3,N/A,,Partly Cloudy,300,2013-08-03 17:53:00
1:53 PM,69.1,46.0,44,30.12,10.0,North,9.2,16.1,N/A,,Partly Cloudy,350,2013-08-03 18:53:00
2:53 PM,71.1,46.9,42,30.12,10.0,NNW,9.2,-,N/A,,Clear,330,2013-08-03 19:53:00
3:53 PM,70.0,42.1,36,30.13,10.0,NNW,9.2,-,N/A,,Mostly Cloudy,330,2013-08-03 20:53:00
4:53 PM,70.0,44.1,39,30.12,10.0,NW,10.4,-,N/A,,Partly Cloudy,320,2013-08-03 21:53:00
5:53 PM,69.1,46.9,45,30.14,10.0,North,10.4,16.1,N/A,,Scattered Clouds,10,2013-08-03 22:53:00
6:53 PM,66.9,46.9,49,30.14,10.0,Variable,5.8,-,N/A,,Scattered Clouds,0,2013-08-03 23:53:00
7:53 PM,63.0,46.9,56,30.15,10.0,NNW,5.8,-,N/A,,Clear,340,2013-08-04 00:53:00
8:53 PM,60.1,48.0,64,30.17,10.0,North,3.5,-,N/A,,Clear,350,2013-08-04 01:53:00
9:53 PM,55.9,48.0,75,30.18,10.0,Calm,Calm,-,N/A,,Clear,0,2013-08-04 02:53:00
10:53 PM,48.9,46.0,90,30.20,10.0,Calm,Calm,-,N/A,,Clear,0,2013-08-04 03:53:00
11:53 PM,46.9,45.0,93,30.22,2.0,West,3.5,-,N/A,,Clear,260,2013-08-04 04:53:00
11:57 PM,46.4,44.6,93,30.20,0.8,WSW,3.5,-,N/A,,Clear,250,2013-08-04 04:57:00